User: anonymous
Location: Bowman Observatory
(41.0326°N, 73.6210°W)
Time: 02:17:14
(UTC-04:00)
Language:

Cosmos 2298 Rocket - Orbit

View from above orbital plane
View from above orbital plane
View from above satellite
View from above satellite

Ground track
Ground track

The orbit data is extracted from the following two-line orbital elements,

1 23432U 94083B   14204.19816341  .00000032  00000-0  21097-4 0  8911
2 23432 074.0323 076.1089 0005390 190.9110 303.2254 14.33271225 24425
Epoch (UTC): 23 July 2014 04:45:21
Eccentricity: 0.0005390
inclination: 74.0323°
perigee height: 777 km
apogee height: 784 km
right ascension of ascending node: 76.1089°
argument of perigee: 190.9110°
revolutions per day: 14.33271225
mean anomaly at epoch: 303.2254°
orbit number at epoch: 2442

The dashed part of the orbit path shows where the satellite is in the earth's shadow,  

DLR